RH
84 87 91 92 95 94 94 96 96 89 95 99 95 96 94 97 97 97 89 93 90 87 85 85 92 90 92 96 96 93 93 94 92 87 82 87 94 98 97 93 88 86 86
81 87 89 89 91 93 94 83 93 75 92 95 95 97 96 97 98 97 95 90 87 86 85 87 94 95 96 98 95 96 97 90 86 80 82 86 83 92 94 85 83 81 84
87 88 91 90 89 91 91 70 88 82 88 96 97 97 90 96 96 95 93 90 88 88 87 92 93 95 95 83 85 90 82 74 67 62 68 61 80 91 91 90 85 76 80
92 90 91 90 88 91 91 67 87 96 78 90 96 92 93 95 97 96 93 90 92 92 94 98 98 94 82 82 79 80 69 63 51 42 43 56 77 85 90 91 89 90 81
93 91 92 87 90 91 85 63 91 98 92 88 89 95 97 97 98 97 94 94 96 96 98 99 89 79 81 79 78 73 69 49 45 48 53 61 72 85 87 89 90 92 90
92 91 88 88 89 92 81 61 95 100 96 93 90 91 90 92 95 96 97 96 96 97 94 80 75 81 80 80 79 75 71 56 48 52 56 66 78 85 84 85 91 95 94
91 90 93 89 90 89 79 62 94 98 95 94 92 91 91 88 92 97 97 94 84 81 77 79 73 74 74 74 74 73 71 69 64 53 56 61 78 83 81 81 82 86 94
89 93 91 89 84 69 68 71 96 87 90 95 93 89 89 87 94 96 96 98 90 85 83 78 73 70 68 67 66 68 70 69 69 64 62 60 73 84 66 57 63 78 81
85 89 93 89 75 59 57 89 97 89 87 81 88 91 92 90 96 96 96 95 84 72 64 59 60 59 63 66 66 66 63 63 67 67 66 65 71 78 62 55 52 56 56
86 91 95 89 76 63 52 88 96 90 87 83 72 83 90 97 97 99 99 96 77 55 54 53 52 52 53 56 64 66 65 65 64 65 65 65 68 69 61 63 62 58 53
83 90 90 86 77 61 56 77 94 93 90 78 80 71 65 76 86 90 82 86 61 57 56 54 52 50 48 47 51 56 63 61 58 58 61 62 62 76 61 59 66 68 64
96 89 87 82 70 55 58 67 90 96 98 82 83 74 62 56 58 56 58 58 57 55 54 53 51 48 46 51 52 49 58 57 54 54 56 60 59 80 71 64 64 70 72
98 100 93 84 74 60 54 59 78 90 94 97 92 80 77 72 63 58 55 53 52 52 50 50 49 49 53 57 58 55 53 53 53 53 52 53 56 59 83 72 69 70 73
79 91 89 83 76 69 59 60 65 82 84 85 97 86 82 77 72 68 67 65 61 56 50 46 47 52 58 66 68 68 66 65 64 62 60 57 54 55 61 75 75 77 80
61 66 74 78 73 73 70 63 60 76 78 78 95 94 86 80 77 76 78 79 71 63 58 59 60 68 70 70 69 70 70 70 70 69 69 68 66 62 59 60 68 77 90
80 90 87 84 69 66 77 73 67 64 73 80 81 84 86 80 80 80 78 71 67 68 67 68 66 66 64 65 69 71 72 72 72 71 71 71 71 69 64 63 63 70 77
68 70 98 80 62 53 54 74 73 62 53 62 73 82 81 76 75 73 71 67 61 65 68 69 68 63 58 59 66 70 71 73 72 72 71 68 66 63 64 68 66 74 72
80 79 75 49 40 41 36 61 72 70 69 64 55 52 57 61 63 64 65 62 60 60 65 66 63 58 57 62 67 73 69 69 64 63 63 64 66 68 69 64 69 78 76
66 60 65 55 42 37 41 52 74 64 61 63 70 71 63 60 62 66 62 63 62 60 62 63 62 62 68 71 68 61 62 63 62 62 62 64 64 66 66 64 72 79 73
69 65 59 76 59 57 53 57 71 68 48 72 73 75 73 70 62 62 64 65 65 66 68 72 72 73 73 69 63 62 66 67 63 59 62 62 64 64 63 67 74 80 76
82 68 63 73 62 73 76 90 83 72 55 70 78 74 72 70 69 62 64 68 69 70 68 70 76 78 66 63 66 69 68 69 65 60 61 62 64 66 64 69 76 82 80
70 66 66 66 70 61 68 89 79 78 68 73 71 68 74 73 62 64 67 71 73 73 72 74 78 79 71 73 78 80 91 74 64 64 62 64 67 65 63 68 80 86 82
91 77 75 72 75 68 69 86 68 72 69 65 68 86 84 92 92 81 82 78 75 78 76 72 70 71 71 73 76 66 89 91 90 71 70 70 70 70 71 79 81 78 75
58 78 79 70 64 66 64 64 72 90 86 83 79 74 76 92 86 85 90 86 85 87 84 73 66 75 72 75 86 84 84 91 99 96 72 75 73 72 72 72 75 75 73
39 39 63 71 68 66 61 60 58 62 64 67 75 68 69 62 76 83 81 98 90 80 72 67 67 89 91 97 96 97 95 92 94 99 97 85 81 77 81 79 76 76 78
41 39 40 64 72 78 71 58 57 63 60 59 63 67 69 78 84 76 74 76 77 87 93 84 90 88 77 69 69 78 89 90 89 92 97 94 94 84 83 83 82 80 81
Wind_Speed
26 28 26 24 21 18 16 14 16 17 17 16 19 21 22 23 24 22 19 19 19 19 20 20 19 20 19 18 19 17 19 20 21 21 19 18 16 15 17 19 15 15 14
34 30 26 24 22 19 17 15 17 17 18 17 19 20 23 25 24 21 20 19 19 19 20 21 19 18 17 16 17 18 18 18 17 15 15 15 14 14 14 17 17 15 17
35 30 26 24 22 19 18 16 19 18 16 17 17 21 24 24 23 21 20 19 19 19 19 19 18 16 14 15 15 16 15 13 12 11 10 12 12 12 12 12 14 15 15
32 30 27 24 21 20 17 18 19 18 15 16 17 19 22 22 22 19 19 20 19 18 18 18 16 15 14 14 15 14 13 12 12 12 13 14 15 12 11 12 12 12 13
31 29 26 23 22 20 17 18 17 18 14 14 17 18 19 20 19 17 18 18 18 18 18 17 15 14 14 14 14 13 13 13 13 13 14 15 15 13 12 12 11 11 11
30 27 24 23 22 18 17 19 17 17 13 14 16 19 19 17 16 16 17 18 18 17 18 17 15 14 13 13 11 11 11 12 12 13 14 14 14 12 12 12 12 11 10
28 25 23 22 19 16 17 20 17 16 14 14 15 16 16 16 15 15 16 17 17 17 17 16 14 12 12 10 9 8 9 9 10 12 12 12 12 11 11 11 12 11 10
28 25 22 20 17 16 18 21 19 15 14 15 15 16 17 16 15 14 14 14 14 14 14 13 12 9 8 8 7 7 6 6 7 9 10 11 10 9 10 11 11 11 10
26 25 22 19 17 16 19 20 18 16 13 13 16 16 17 16 14 13 13 13 13 13 12 11 10 8 7 5 5 5 5 4 4 5 7 8 8 7 9 10 10 10 10
25 24 23 20 17 16 18 19 13 15 14 11 13 15 17 16 14 13 11 11 12 12 11 10 9 8 6 5 3 3 3 3 2 2 3 4 6 5 7 7 8 8 9
23 25 23 21 17 15 17 19 14 13 14 10 11 11 13 15 15 13 12 11 11 10 9 7 7 6 5 5 4 3 1 1 2 2 2 2 3 3 5 5 6 6 7
18 23 24 21 19 16 17 19 16 13 15 14 10 11 12 12 11 11 11 9 9 8 7 6 5 5 4 4 2 2 2 2 3 3 2 3 3 2 5 6 5 6 6
23 22 24 21 18 16 17 18 18 15 13 16 13 12 11 11 11 11 10 10 9 8 8 7 7 5 4 3 2 3 3 3 4 4 3 4 4 3 5 7 7 6 6
23 25 26 23 19 14 14 16 16 17 16 15 16 14 12 11 12 11 10 9 9 9 8 8 7 6 5 4 3 3 3 4 5 5 5 5 6 6 6 7 8 8 8
29 26 26 28 23 16 13 14 15 15 16 16 18 17 15 13 12 12 11 11 9 10 10 9 7 6 6 6 6 5 5 5 6 7 8 8 8 9 10 10 9 9 9
20 24 32 34 29 21 12 13 14 14 15 17 18 19 18 16 15 15 13 12 11 9 9 8 8 8 7 6 6 6 6 6 7 8 9 10 12 13 13 14 12 13 12
36 33 31 29 25 24 15 12 13 13 16 19 19 19 19 19 18 17 16 15 13 12 11 11 10 9 8 8 7 7 8 7 7 9 10 9 14 15 14 17 16 14 16
33 31 38 29 25 19 18 12 18 17 17 17 19 19 21 21 20 20 18 18 14 14 14 13 11 10 9 8 8 6 9 9 9 11 13 16 18 19 19 16 16 16 17
42 36 36 23 20 19 21 27 27 21 21 21 23 22 23 22 22 23 21 19 16 15 15 13 13 11 9 9 9 10 10 12 14 15 16 19 20 19 17 18 18 15 13
30 25 26 24 24 26 31 32 32 27 23 26 30 26 24 26 24 26 25 21 19 17 16 15 14 13 13 11 10 13 14 15 14 18 20 22 22 21 19 16 15 14 12
25 23 28 26 29 25 24 23 30 31 32 30 26 28 26 26 27 28 25 22 20 19 18 16 14 14 13 11 11 14 14 14 17 17 16 16 14 10 11 14 13 13 13
30 30 31 35 34 32 33 26 26 19 21 23 26 27 25 27 25 28 27 27 21 21 19 17 14 12 10 10 6 6 3 7 11 3 8 15 7 7 8 8 9 9 11
21 28 31 35 34 37 35 28 25 25 21 24 28 28 19 21 22 25 26 28 23 21 18 12 11 14 17 13 12 8 2 3 2 10 4 7 5 4 5 7 8 11 13
17 19 26 29 28 30 32 29 33 26 30 32 29 20 25 24 20 18 15 22 19 11 7 10 13 19 21 19 12 13 13 13 2 4 2 2 9 10 10 8 10 12 13
12 17 18 18 21 23 26 25 25 27 28 25 23 21 21 17 24 21 9 10 9 10 12 20 19 20 13 12 11 9 6 9 11 6 3 5 3 8 4 6 9 11 13
7 13 15 16 16 14 16 19 20 22 22 19 18 16 19 17 18 16 14 12 15 21 21 17 14 11 9 8 9 10 10 6 2 4 3 5 6 8 6 9 10 13 14
Wind_Direction
165 162 159 152 149 145 140 132 129 131 122 118 132 135 135 132 128 124 126 115 113 111 112 112 110 106 98 91 92 94 92 88 83 81 79 74 75 70 68 64 69 56 63
160 159 158 155 151 147 142 136 137 137 128 121 126 137 135 132 126 124 120 117 116 115 116 116 110 106 101 97 98 99 97 93 88 83 86 86 78 69 68 73 67 62 51
157 158 158 155 152 148 145 140 140 133 139 128 121 130 136 131 128 124 122 121 121 120 120 119 114 109 109 106 107 107 99 90 85 79 83 82 73 67 68 68 76 63 58
156 157 157 156 152 148 146 145 148 141 140 136 130 132 131 129 128 125 125 125 125 126 126 122 118 115 110 109 113 105 96 86 80 81 79 76 72 67 70 71 69 66 63
154 157 156 156 152 145 143 148 148 139 138 139 140 138 130 127 128 129 129 130 131 133 132 127 122 116 115 115 115 106 94 86 84 80 76 71 70 69 67 67 72 74 68
155 157 156 156 149 146 146 153 148 138 139 139 143 144 144 137 135 136 138 138 138 137 136 134 127 119 115 117 115 106 90 86 81 76 74 74 69 69 67 66 68 68 70
156 156 154 154 146 148 152 157 150 144 141 139 141 144 144 145 142 143 143 139 140 140 143 139 131 122 115 112 112 108 93 86 80 74 71 69 67 66 63 62 63 63 65
155 153 153 150 146 149 156 158 156 152 147 140 144 148 148 147 147 146 143 137 138 139 142 143 139 131 125 118 107 107 103 87 79 70 64 63 59 60 52 52 54 58 59
155 154 151 149 145 149 158 159 158 155 153 146 149 152 152 149 149 151 146 140 140 143 146 147 146 143 136 131 119 113 98 94 72 60 56 57 60 50 44 44 45 47 47
156 156 152 149 146 149 159 165 154 161 161 149 152 158 161 160 158 155 154 150 152 153 154 156 155 154 153 153 159 140 105 69 37 32 44 45 54 35 32 34 36 38 37
163 161 153 148 147 152 159 168 161 169 173 165 157 161 163 164 165 166 165 165 163 162 165 167 170 173 176 176 183 211 198 346 358 358 348 1 29 11 13 12 18 22 25
166 164 157 155 153 153 161 172 173 169 172 177 172 169 169 169 170 172 173 174 178 180 183 188 195 200 192 180 187 211 231 294 324 331 315 299 318 310 330 345 349 355 2
172 170 162 156 155 157 162 170 180 185 181 177 192 182 177 180 180 183 185 187 194 201 202 209 214 221 217 208 231 246 262 293 306 328 317 298 287 295 279 311 326 328 331
184 180 165 161 158 159 168 174 180 194 199 198 198 198 196 194 195 195 196 204 212 216 220 223 229 230 223 227 248 268 292 307 316 314 310 307 298 289 285 285 298 310 312
185 186 178 170 157 163 174 182 185 196 205 207 206 209 212 209 207 207 214 222 226 226 229 228 220 226 239 254 265 274 279 287 289 296 302 300 296 290 285 283 285 282 282
189 186 184 184 160 156 183 195 201 201 207 214 218 220 223 225 227 230 229 230 226 227 224 222 223 235 247 255 267 282 286 288 292 295 297 301 300 292 288 278 285 278 275
192 201 189 176 163 163 175 207 211 207 216 221 222 227 231 235 237 243 239 236 231 230 230 232 233 239 243 250 264 274 287 293 294 296 300 306 312 304 296 279 267 276 274
181 199 202 187 184 184 187 228 223 211 218 224 228 227 232 234 235 241 242 240 240 233 230 235 240 240 241 248 262 279 288 294 300 302 297 299 296 301 297 291 273 274 270
187 197 199 182 178 196 196 224 229 219 227 238 232 233 236 235 238 240 242 242 241 235 230 229 233 233 234 248 261 278 286 285 290 292 290 293 295 293 295 291 279 273 271
188 195 190 188 189 203 201 214 230 233 252 256 239 232 242 239 239 241 241 244 239 232 232 231 234 241 246 258 277 281 282 281 283 290 288 290 293 292 292 282 276 266 258
193 198 193 193 200 208 218 221 222 226 233 248 240 239 240 240 240 240 239 239 234 234 237 234 238 246 259 267 277 289 290 286 288 289 289 300 304 307 297 272 266 261 251
196 202 204 209 209 206 227 224 225 234 246 251 243 244 244 251 241 238 236 237 229 232 229 228 232 249 266 271 270 304 313 303 270 239 308 303 293 311 318 298 260 240 216
203 207 215 217 213 211 224 224 234 242 268 268 276 259 260 261 248 239 241 241 236 230 230 244 255 252 253 260 265 272 303 261 328 273 266 268 284 330 319 274 245 225 220
216 217 225 225 227 228 231 230 231 227 227 242 236 243 249 256 270 275 275 265 254 246 256 278 282 278 272 269 269 276 266 274 284 317 338 231 301 302 299 261 249 234 228
248 235 228 228 233 230 235 239 240 242 242 242 244 229 235 238 245 248 245 270 307 290 254 240 249 256 262 265 275 278 253 250 249 237 288 304 321 317 274 254 250 242 236
277 245 234 236 240 244 246 243 243 247 254 255 248 229 236 237 228 227 222 225 256 248 239 241 243 251 256 271 286 280 267 253 245 226 243 277 287 287 280 271 251 244 238